Home   Weather   Washington Park   Past weeks
Flag for USA

Past Weather in Washington Park, Alabama, USA — Yesterday and Last 2 Weeks

Now
74 °F

Scattered clouds.


Feels Like: 77 °F
Forecast: 77 / 55 °F
Wind: 13 mph from Northwest

Location: Maxwell Air Force Base / Montgomery

Current Time: Oct 16, 2019 at 5:05:51 pm

Latest Report: Oct 16, 2019 at 3:56 pm


Visibility: 10 mi

Pressure: 29.91 "Hg

Humidity: 59%

Dew Point: 59 °F

Location of Washington ParkLocation

Past Weather in Washington Park — Graph

°F

Washington Park Temperature Yesterday

Maximum temperature yesterday: 72 °F (at 12:26 pm)
Minimum temperature yesterday: 68 °F (at 5:59 am)
Average temperature yesterday: 70 °F

High & Low Weather Summary for the Past Weeks

 TemperatureHumidityPressure
High100 °F (Oct 3, 2:56 pm)100% (Oct 13, 11:33 am)30.14 "Hg (Oct 13, 11:33 am)
Low59 °F (Oct 13, 11:22 pm)27% (Oct 4, 3:56 pm)29.79 "Hg (Oct 16, 1:56 am)
Average75 °F74%30.01 "Hg
* Reported Oct 1 3:56 pm — Oct 16 3:56 pm, Washington Park. Weather by CustomWeather, © 2019

Note: Actual official high and low records may vary slightly from our data, if they occured in-between our weather recording intervals... More about our weather records

Advertising

Washington Park Weather History for the Previous 24 Hours

Scroll right to see more
 ConditionsComfort  
Time TempWeatherWind HumidityBarometerVisibility
3:56 pm
Wed, Oct 16
74 °FScattered clouds.13 mph59%29.91 "Hg10 mi
2:56 pm75 °FScattered clouds.7 mph65%29.90 "Hg10 mi
1:56 pm76 °FPartly sunny.12 mph69%29.90 "Hg10 mi
12:56 pm75 °FMostly cloudy.13 mph74%29.90 "Hg10 mi
12:26 pm75 °FBroken clouds.6 mph78%29.90 "Hg10 mi
12:11 pm73 °FMostly cloudy.6 mph83%29.90 "Hg10 mi
11:56 am74 °FBroken clouds.9 mph81%29.91 "Hg10 mi
11:17 am72 °FCloudy.8 mph88%29.91 "Hg10 mi
10:56 am71 °FOvercast.7 mph89%29.92 "Hg10 mi
10:27 am72 °FDrizzle. Cloudy.5 mph88%29.91 "Hg10 mi
10:11 am72 °FMostly cloudy.3 mph88%29.90 "Hg10 mi
9:56 am72 °FScattered clouds.6 mph89%29.89 "Hg10 mi
9:23 am70 °FMostly cloudy.7 mph94%29.89 "Hg10 mi
9:10 am70 °FDrizzle. Mostly cloudy.7 mph94%29.88 "Hg9 mi
8:56 am71 °FMore clouds than sun.3 mph92%29.88 "Hg10 mi
8:26 am70 °FMore clouds than sun.5 mph94%29.86 "Hg10 mi
7:56 am70 °FLow clouds.5 mph95%29.85 "Hg10 mi
7:26 am70 °FMostly cloudy.5 mph94%29.86 "Hg10 mi
6:56 am69 °FOvercast.5 mph96%29.85 "Hg10 mi
6:26 am70 °FMostly cloudy.No wind94%29.84 "Hg10 mi
5:56 am69 °FPartly cloudy.No wind96%29.85 "Hg10 mi
4:56 am69 °FLow clouds.5 mph97%29.85 "Hg10 mi
4:14 am70 °FLow clouds.6 mph94%29.84 "Hg10 mi
3:56 am69 °FDrizzle. Low clouds.3 mph97%29.83 "Hg7 mi
2:56 am69 °FLow clouds.3 mph97%29.83 "Hg10 mi
1:56 am69 °FLow clouds.9 mph97%29.79 "Hg10 mi
1:26 am70 °FLight rain. Mostly cloudy.3 mph94%29.83 "Hg10 mi
12:56 am69 °FLight rain. Fog.No wind97%29.86 "Hg6 mi
12:11 am70 °FLight rain. Mostly cloudy.No wind94%29.88 "Hg10 mi
11:56 pm
Tue, Oct 15
69 °FLight rain. Mostly cloudy.No wind97%29.88 "Hg9 mi
10:56 pm69 °FRain. Passing clouds.9 mph97%29.88 "Hg8 mi
9:56 pm69 °FLight rain. Mostly cloudy.3 mph96%29.89 "Hg10 mi
9:06 pm70 °FPartly cloudy.3 mph94%29.88 "Hg10 mi
8:56 pm69 °FPartly cloudy.6 mph96%29.88 "Hg10 mi
7:56 pm69 °FLight rain. Low clouds.5 mph95%29.89 "Hg10 mi
6:56 pm70 °FLow clouds.9 mph96%29.88 "Hg10 mi
6:26 pm70 °FLight rain. Low clouds.10 mph94%29.89 "Hg10 mi
5:56 pm70 °FLight rain. Scattered clouds.12 mph96%29.90 "Hg8 mi
Weather by CustomWeather, © 2019

See weather overview